Change the Weather History Date:

Friday, April 12, 2013

  Actual Average Record
Temperature  
Mean Temperature 60 °F -  
Max Temperature 73 °F 70 °F 77 °F (2008)
Min Temperature 48 °F 52 °F 41 °F (2011)
Degree Days  
Heating Degree Days 4    
Growing Degree Days 10 (Base 50)    
Moisture  
Dew Point 45 °F    
Average Humidity 56    
Maximum Humidity 82    
Minimum Humidity 31    
Precipitation  
Precipitation 0.00 in - - ()
Sea Level Pressure  
Sea Level Pressure 30.04 in    
Wind  
Wind Speed 2 mph ()    
Max Wind Speed 12 mph    
Max Gust Speed -    
Visibility 6.2 miles    
Events      
Averages and records for this station are not official NWS values.
T = Trace of Precipitation, MM = Missing Value Source: Averaged Metar Reports

Daily Weather History Graph

Daily Weather History Graph

Search for Another Location

Airport or City:

Trip Planner

Search our weather history database for the weather conditions in past years. The results will help you decide how hot, cold, wet, or windy it might be!

Date:

Astronomy

Apr. 12, 2013 Rise Set
Actual Time 6:54 AM EEST 7:59 PM EEST
Civil Twilight 6:27 AM EEST 8:26 PM EEST
Nautical Twilight 5:55 AM EEST 8:58 PM EEST
Astronomical Twilight 5:22 AM EEST 9:31 PM EEST
Moon 7:54 AM EEST (4/12) 10:10 PM EEST (4/12)
Length of Visible Light 13h 58m
Length of Day
13h 04m
Waxing Crescent, 4% of the Moon is Illuminated
Apr 12
Waxing Crescent
Apr 18
First Quarter
Apr 25
Full
May 2
Last Quarter
May 10
New

Hourly Weather History & Observations

Time (EEST) Temp. Dew Point Humidity Pressure Visibility Wind Dir Wind Speed Gust Speed Precip Events Conditions
12:50 AM 53.6 °F 44.6 °F 72% 30.04 in - Calm Calm - N/A   Clear
1:50 AM 51.8 °F 44.6 °F 76% 30.04 in - Calm Calm - N/A   Clear
2:50 AM 51.8 °F 44.6 °F 76% 30.01 in - Calm Calm - N/A   Clear
3:50 AM 50.0 °F 44.6 °F 82% 30.01 in - Calm Calm - N/A   Clear
4:50 AM 48.2 °F 42.8 °F 82% 30.01 in - Calm Calm - N/A   Clear
5:50 AM 48.2 °F 42.8 °F 82% 30.01 in - Calm Calm - N/A   Clear
6:20 AM 48.2 °F 42.8 °F 82% 30.01 in - Calm Calm - N/A   Clear
6:50 AM 48.2 °F 42.8 °F 82% 30.01 in - Calm Calm - N/A   Clear
7:20 AM 50.0 °F 42.8 °F 76% 30.01 in - Calm Calm - N/A   Clear
7:50 AM 51.8 °F 44.6 °F 76% 30.04 in - Calm Calm - N/A   Clear
8:20 AM 57.2 °F 46.4 °F 67% 30.04 in - Calm Calm - N/A   Clear
8:50 AM 59.0 °F 46.4 °F 63% 30.04 in - Calm Calm - N/A   Clear
9:20 AM 64.4 °F 44.6 °F 49% 30.04 in - Calm Calm - N/A   Clear
9:50 AM 66.2 °F 44.6 °F 46% 30.04 in - Calm Calm - N/A   Clear
10:20 AM 68.0 °F 46.4 °F 46% 30.04 in - Calm Calm - N/A   Clear
10:50 AM 69.8 °F 46.4 °F 43% 30.04 in - Calm Calm - N/A   Clear
11:20 AM 69.8 °F 46.4 °F 43% 30.04 in 6.2 mi SSE 3.5 mph - N/A   Partly Cloudy
11:50 AM 71.6 °F 48.2 °F 43% 30.04 in 6.2 mi SSW 4.6 mph - N/A   Partly Cloudy
12:20 PM 71.6 °F 50.0 °F 46% 30.04 in 6.2 mi SSW 5.8 mph - N/A   Partly Cloudy
12:50 PM 71.6 °F 50.0 °F 46% 30.04 in 6.2 mi South 6.9 mph - N/A   Partly Cloudy
1:20 PM 71.6 °F 48.2 °F 43% 30.04 in 6.2 mi SSW 6.9 mph - N/A   Partly Cloudy
1:50 PM 71.6 °F 42.8 °F 35% 30.04 in 6.2 mi SSW 9.2 mph - N/A   Partly Cloudy
2:20 PM 73.4 °F 41.0 °F 31% 30.04 in 6.2 mi SSW 8.1 mph - N/A   Partly Cloudy
2:50 PM 73.4 °F 42.8 °F 33% 30.04 in 6.2 mi SSW 9.2 mph - N/A   Partly Cloudy
3:20 PM 73.4 °F 44.6 °F 36% 30.04 in 6.2 mi SSW 9.2 mph - N/A   Partly Cloudy
3:50 PM 71.6 °F 48.2 °F 43% 30.04 in 6.2 mi South 11.5 mph - N/A   Partly Cloudy
4:20 PM 71.6 °F 46.4 °F 41% 30.04 in 6.2 mi South 10.4 mph - N/A   Partly Cloudy
4:50 PM 71.6 °F 46.4 °F 41% 30.01 in - South 10.4 mph - N/A   Clear
5:20 PM 69.8 °F 48.2 °F 46% 30.01 in - South 9.2 mph - N/A   Clear
5:50 PM 69.8 °F 46.4 °F 43% 30.04 in - South 9.2 mph - N/A   Clear
6:20 PM 69.8 °F 41.0 °F 35% 30.04 in - South 8.1 mph - N/A   Clear
7:20 PM 66.2 °F 42.8 °F 43% 30.04 in - South 4.6 mph - N/A   Clear
7:50 PM 64.4 °F 44.6 °F 49% 30.04 in - SSW 4.6 mph - N/A   Clear
8:20 PM 62.6 °F 44.6 °F 52% 30.04 in - South 3.5 mph - N/A   Clear
8:50 PM 62.6 °F 44.6 °F 52% 30.04 in - Calm Calm - N/A   Clear
9:20 PM 60.8 °F 44.6 °F 55% 30.04 in - Calm Calm - N/A   Clear
9:50 PM 57.2 °F 44.6 °F 63% 30.06 in - Calm Calm - N/A   Clear
10:20 PM 55.4 °F 44.6 °F 67% 30.06 in - North 3.5 mph - N/A   Clear
10:50 PM 55.4 °F 44.6 °F 67% 30.06 in - North 4.6 mph - N/A   Clear
11:20 PM 55.4 °F 44.6 °F 67% 30.06 in 6.2 mi NNW 4.6 mph - N/A   Partly Cloudy
11:50 PM 57.2 °F 44.6 °F 63% 30.09 in 6.2 mi NNW 4.6 mph - N/A   Partly Cloudy